[[{"header":{"parameterUnit":"m.s-1","parameterCategory":1,"la1":30.2991,"la2":30.254,"lo1":-89.0895,"lo2":-89.0444,"dy":0.0017,"dx":0.0017,"nx":28,"ny":28,"refTime":"2024-03-17T21:00:00:Z","depth":0,"parameterNumber":2,"parameterNumberName":"U-component_of_WINDS"},"data":[0,0,0,0,0,0,0,0,0,0,0,0,0,0,0,0,0,0,0,0,0,0,0,0,0,0,0,0,0,0,0,0,0,0,0,0,0,0,0,0,0,0,0,0,0,0,0,0,0,0,0,0,0,0,0,0,0,0,-1.6063,-1.6064,0,-1.6176,-1.6177,-1.6178,-1.6144,-1.6141,-1.6139,-1.6137,-1.6265,-1.6271,-1.6276,0,0,0,0,0,0,0,0,0,0,0,0,0,-1.5825,-1.583,-1.6062,-1.6064,-1.6065,-1.6176,-1.6177,-1.6179,-1.6144,-1.6141,-1.6138,-1.6136,-1.6263,-1.627,-1.6277,0,0,0,0,0,0,0,0,0,0,0,0,0,-1.5933,-1.5831,-1.6062,-1.6061,-1.6062,-1.6175,-1.6177,-1.6179,-1.6145,-1.6141,-1.6138,-1.6134,-1.6261,-1.627,-1.6278,-1.6403,0,0,-1.6304,-1.6308,0,0,0,0,0,0,0,0,-1.5927,-1.5941,-1.606,-1.6061,-1.6063,-1.6142,-1.6141,-1.6255,-1.6146,-1.6114,-1.6137,-1.6132,-1.6228,-1.6239,-1.6269,-1.6409,-1.6415,-1.6305,-1.631,-1.6314,-1.6316,0,0,0,0,0,0,0,-1.5919,-1.5936,-1.6108,-1.6062,-1.6063,-1.6058,-1.6069,-1.6162,-1.619,-1.6116,-1.6114,-1.6127,-1.6228,-1.626,-1.6271,-1.6417,-1.6304,-1.6312,-1.6317,-1.6321,-1.6664,-1.6668,0,0,0,0,0,0,-1.5909,-1.593,-1.6104,-1.6111,-1.5984,-1.6065,-1.6078,-1.612,-1.6189,-1.6196,-1.613,-1.6125,-1.6248,-1.6262,-1.6276,-1.6426,-1.6313,-1.6321,-1.6326,-1.666,-1.6665,-1.6669,0,0,0,0,0,0,-1.5904,-1.5925,-1.6099,-1.602,-1.6042,-1.6073,-1.6121,-1.6124,-1.6156,-1.6199,-1.6205,-1.6157,-1.6245,-1.6264,-1.637,-1.643,-1.6325,-1.6333,-1.6655,-1.6662,-1.6667,-1.6727,0,0,0,0,0,0,-1.5898,-1.5924,-1.5969,-1.6021,-1.6046,-1.6189,-1.6125,-1.6129,-1.617,-1.6164,-1.6226,-1.6234,-1.6244,-1.6358,-1.6379,-1.6439,-1.634,-1.665,-1.6658,-1.6665,-1.672,-1.6734,-1.6746,0,0,0,0,0,-1.5889,-1.5985,-1.5972,-1.5993,-1.6103,-1.6193,-1.6207,-1.6214,-1.6175,-1.6222,-1.6249,-1.6232,-1.6419,-1.6369,-1.6392,-1.6457,-1.6647,-1.6656,-1.6665,-1.6714,-1.6731,-1.6746,0,0,0,0,0,0,-1.5944,-1.5992,-1.5978,-1.6092,-1.6138,-1.6187,-1.6247,-1.6233,-1.6294,-1.6287,-1.6296,-1.631,-1.6419,-1.6449,-1.6392,-1.6581,-1.6528,-1.6542,-1.6557,-1.6574,-1.6587,-1.6578,-1.6347,0,0,0,0,0,-1.5968,-1.6034,-1.6073,-1.6171,-1.6194,-1.6216,-1.6256,-1.6256,-1.6306,-1.6326,-1.6361,-1.6414,-1.6484,-1.6531,-1.6598,-1.6724,-1.6737,-1.6779,-1.6793,-1.6803,-1.6816,-1.6883,-1.6902,-1.6699,-1.6699,-1.6699,0,0,-1.6022,-1.6055,-1.6097,-1.6182,-1.6218,-1.6288,-1.6233,-1.631,-1.6363,-1.634,-1.644,-1.6468,-1.6527,-1.6643,-1.6696,-1.6671,-1.6874,-1.6815,-1.6823,-1.683,-1.6895,-1.6914,-1.6931,-1.6705,-1.6704,-1.6703,0,0,-1.6153,-1.6185,-1.6269,-1.6304,-1.6357,-1.6371,-1.6391,-1.6441,-1.6457,-1.6557,-1.6541,-1.6605,-1.6727,-1.6769,-1.6806,-1.6951,-1.6937,-1.6973,-1.7043,-1.7109,-1.7125,-1.7139,-1.719,-1.7209,-1.6985,-1.6985,-1.6985,0,-1.6213,-1.6314,-1.6315,-1.6391,-1.643,-1.6406,-1.6492,-1.6528,-1.6602,-1.6631,-1.66,-1.675,-1.6789,-1.6913,-1.6947,-1.6979,-1.7003,-1.6966,-1.7122,-1.7136,-1.715,-1.7199,-1.7218,-1.6989,-1.6989,-1.6988,-1.6988,0,-1.6386,-1.6456,-1.6518,-1.6584,-1.663,-1.6711,-1.6725,-1.6772,-1.6768,-1.6786,-1.6889,-1.6933,-1.7008,-1.7038,-1.7037,-1.7163,-1.7145,-1.7118,-1.7066,-1.7173,-1.7219,-1.7238,-1.6995,-1.6993,-1.6992,-1.6991,0,0,-1.6557,-1.6619,-1.6642,-1.6671,-1.6726,-1.6783,-1.6863,-1.6932,-1.6971,-1.7023,-1.7092,-1.7193,-1.7168,-1.721,-1.7214,-1.7272,-1.7382,-1.7238,-1.7239,-1.7263,-1.7522,-1.7542,-1.7563,-1.7372,-1.7376,-1.7379,-1.7517,0,-1.6693,-1.683,-1.6831,-1.6959,-1.7024,-1.7002,-1.7072,-1.7115,-1.7134,-1.7194,-1.7216,-1.7287,-1.7249,-1.7274,-1.7329,-1.7357,-1.7434,-1.7347,-1.7439,-1.7442,-1.7424,-1.7587,-1.7609,-1.7737,-1.7535,-1.7538,-1.7541,0,-1.6871,-1.6922,-1.7055,-1.7098,-1.7125,-1.7188,-1.725,-1.7307,-1.7356,-1.7366,-1.7411,-1.7405,-1.749,-1.7433,-1.755,-1.7491,-1.7528,-1.7547,-1.7553,-1.7562,-1.7498,-1.7601,-1.7779,-1.7798,-1.7569,-1.7567,-1.7565,0,-1.6981,-1.7085,-1.7177,-1.7202,-1.7256,-1.73,-1.7325,-1.7369,-1.741,-1.7465,-1.7492,-1.7559,-1.7595,-1.7648,-1.7661,-1.7619,-1.7779,-1.7724,-1.7791,-1.7791,-1.7826,-1.7824,-1.8012,-1.7851,-1.7851,-1.785,-1.785,0,-1.7133,-1.7215,-1.7226,-1.7283,-1.7375,-1.7376,-1.7468,-1.749,-1.7529,-1.7591,-1.7578,-1.7638,-1.7651,-1.7714,-1.7726,-1.7821,-1.7838,-1.785,-1.7852,-1.7851,-1.7849,-1.7876,-1.7868,-1.7855,-1.7854,-1.7853,-1.7852,0,-1.7273,-1.7284,-1.7382,-1.7423,-1.7435,-1.75,-1.7537,-1.7592,-1.7607,-1.7686,-1.7705,-1.7731,-1.7804,-1.7822,-1.7911,-1.7919,-1.8031,-1.8025,-1.8013,-1.8013,-1.8078,-1.8072,-1.829,-1.8319,-1.8139,-1.8141,-1.8143,0,-1.7369,-1.7431,-1.7476,-1.7515,-1.754,-1.7603,-1.7643,-1.7647,-1.769,-1.7748,-1.7797,-1.7867,-1.7923,-1.8042,-1.8071,-1.8139,-1.8134,-1.8206,-1.8145,-1.8141,-1.8135,-1.8131,-1.8137,-1.8218,-1.822,-1.8222,-1.8223,0,-1.7539,-1.754,-1.7595,-1.7653,-1.7699,-1.7746,-1.779,-1.7823,-1.7834,-1.7882,-1.7954,-1.7997,-1.8085,-1.8156,-1.8223,-1.8253,-1.8241,-1.8241,-1.8261,-1.826,-1.825,-1.8256,-1.8044,-1.8237,-1.8236,-1.8235,-1.8234,-1.8233,-1.766,-1.7712,-1.7751,-1.7814,-1.7846,-1.7887,-1.794,-1.7959,-1.8018,-1.8086,-1.8086,-1.8165,-1.8211,-1.8299,-1.8332,-1.8396,-1.8374,-1.8402,-1.8409,-1.8416,-1.8421,-1.8239,-1.8408,-1.8408,-1.8408,-1.8407,-1.8407,0,-1.7827,-1.785,-1.7907,-1.7967,-1.8016,-1.7995,-1.8042,-1.8085,-1.8153,-1.8195,-1.8249,-1.8331,-1.8399,-1.8432,-1.8499,-1.8544,-1.854,-1.8562,-1.8559,-1.8565,-1.8437,-1.8413,-1.8563,-1.8563,-1.8563,-1.8563,-1.8563,-1.8563,-1.792,-1.8008,-1.8014,-1.8117,-1.8141,-1.8214,-1.8242,-1.828,-1.8313,-1.8404,-1.8458,-1.8477,-1.8516,-1.8586,-1.8647,-1.8656,-1.8681,-1.8706,-1.8711,-1.8591,-1.8575,-1.856,-1.8537,-1.8711,-1.8711,-1.8834,-1.8835,-1.8836]},{"header":{"parameterUnit":"m.s-1","parameterCategory":1,"la1":30.2991,"la2":30.254,"lo1":-89.0895,"lo2":-89.0444,"dy":0.0017,"dx":0.0017,"nx":28,"ny":28,"refTime":"2024-03-17T21:00:00:Z","depth":0,"parameterNumber":3,"parameterNumberName":"V-component_of_WINDS"},"data":[0,0,0,0,0,0,0,0,0,0,0,0,0,0,0,0,0,0,0,0,0,0,0,0,0,0,0,0,0,0,0,0,0,0,0,0,0,0,0,0,0,0,0,0,0,0,0,0,0,0,0,0,0,0,0,0,0,0,-0.6514,-0.6513,0,-0.639,-0.6388,-0.6387,-0.6421,-0.6424,-0.6426,-0.6429,-0.6296,-0.629,-0.6285,0,0,0,0,0,0,0,0,0,0,0,0,0,-0.6776,-0.6771,-0.6514,-0.6513,-0.6511,-0.639,-0.6388,-0.6387,-0.6421,-0.6424,-0.6427,-0.643,-0.6298,-0.6291,-0.6284,0,0,0,0,0,0,0,0,0,0,0,0,0,-0.6658,-0.677,-0.6515,-0.6514,-0.6513,-0.639,-0.6388,-0.6386,-0.642,-0.6424,-0.6428,-0.6431,-0.63,-0.6292,-0.6283,-0.6152,0,0,-0.6256,-0.6252,0,0,0,0,0,0,0,0,-0.6665,-0.6648,-0.6515,-0.6514,-0.6512,-0.6425,-0.6432,-0.6308,-0.6419,-0.6455,-0.6429,-0.6433,-0.6336,-0.6324,-0.6292,-0.6146,-0.6141,-0.6255,-0.625,-0.6246,-0.6244,0,0,0,0,0,0,0,-0.6673,-0.6654,-0.6465,-0.6513,-0.6511,-0.6518,-0.6505,-0.6409,-0.6375,-0.6452,-0.6455,-0.644,-0.6335,-0.6301,-0.6289,-0.6139,-0.6256,-0.6248,-0.6242,-0.6239,-0.5876,-0.5872,0,0,0,0,0,0,-0.6683,-0.6661,-0.6469,-0.6461,-0.66,-0.651,-0.6496,-0.6449,-0.6377,-0.6369,-0.6436,-0.6442,-0.6314,-0.63,-0.6285,-0.6124,-0.6246,-0.6238,-0.6233,-0.588,-0.5875,-0.587,0,0,0,0,0,0,-0.6689,-0.6666,-0.6474,-0.6561,-0.6538,-0.6502,-0.6448,-0.6445,-0.641,-0.6365,-0.6358,-0.6407,-0.6316,-0.6297,-0.6185,-0.612,-0.6234,-0.6226,-0.5885,-0.5879,-0.5873,-0.5803,0,0,0,0,0,0,-0.6696,-0.6668,-0.6619,-0.656,-0.6533,-0.6377,-0.6445,-0.6439,-0.6395,-0.6401,-0.6336,-0.6329,-0.6318,-0.6198,-0.6176,-0.611,-0.6219,-0.5891,-0.5883,-0.5875,-0.5811,-0.5795,-0.5782,0,0,0,0,0,-0.6705,-0.6604,-0.6616,-0.6593,-0.6471,-0.6373,-0.6357,-0.6349,-0.639,-0.6339,-0.631,-0.6331,-0.6132,-0.6186,-0.6162,-0.6092,-0.5895,-0.5885,-0.5875,-0.5818,-0.5798,-0.5782,0,0,0,0,0,0,-0.6654,-0.6596,-0.6609,-0.6486,-0.6434,-0.6379,-0.6315,-0.6329,-0.6263,-0.6271,-0.6262,-0.6247,-0.6131,-0.6101,-0.6162,-0.5961,-0.6019,-0.6004,-0.5984,-0.5965,-0.595,-0.5958,-0.6212,0,0,0,0,0,-0.6628,-0.6555,-0.6509,-0.6404,-0.6378,-0.6351,-0.6308,-0.6306,-0.6252,-0.6229,-0.6192,-0.6137,-0.6062,-0.6013,-0.5941,-0.5809,-0.5793,-0.5749,-0.5734,-0.5722,-0.5708,-0.5632,-0.5611,-0.5838,-0.5839,-0.5839,0,0,-0.6574,-0.6534,-0.6488,-0.6393,-0.6352,-0.6275,-0.6332,-0.6248,-0.619,-0.6216,-0.6107,-0.6078,-0.6016,-0.5892,-0.5835,-0.5863,-0.5642,-0.571,-0.5701,-0.5693,-0.562,-0.5599,-0.5579,-0.5832,-0.5833,-0.5834,0,0,-0.6435,-0.6399,-0.6306,-0.6265,-0.6205,-0.6188,-0.6166,-0.6108,-0.609,-0.5981,-0.5999,-0.5929,-0.5801,-0.5755,-0.5715,-0.5559,-0.5574,-0.5536,-0.5457,-0.5384,-0.5366,-0.535,-0.529,-0.527,-0.5523,-0.5523,-0.5523,0,-0.6375,-0.626,-0.6257,-0.617,-0.6127,-0.615,-0.6054,-0.6014,-0.5932,-0.5901,-0.5934,-0.5773,-0.5733,-0.5597,-0.5559,-0.5527,-0.5499,-0.5541,-0.5369,-0.5353,-0.5338,-0.5281,-0.5259,-0.5518,-0.5519,-0.5519,-0.552,0,-0.6187,-0.6107,-0.604,-0.5961,-0.591,-0.582,-0.5801,-0.575,-0.5753,-0.5731,-0.5619,-0.5572,-0.549,-0.5459,-0.5461,-0.5323,-0.5341,-0.5372,-0.543,-0.5312,-0.5258,-0.5237,-0.5512,-0.5513,-0.5515,-0.5516,0,0,-0.6009,-0.5931,-0.5905,-0.5869,-0.5804,-0.5741,-0.5651,-0.5573,-0.5527,-0.5471,-0.5393,-0.5284,-0.5312,-0.5267,-0.5264,-0.52,-0.5075,-0.5238,-0.5236,-0.5206,-0.4916,-0.489,-0.4865,-0.5087,-0.5083,-0.5079,-0.492,0,-0.5861,-0.5704,-0.5698,-0.5554,-0.5478,-0.5499,-0.5421,-0.5371,-0.5349,-0.5281,-0.5257,-0.5178,-0.5223,-0.5195,-0.5133,-0.5103,-0.5016,-0.5115,-0.501,-0.5007,-0.5021,-0.4837,-0.481,-0.4661,-0.4899,-0.4895,-0.4893,0,-0.5667,-0.5604,-0.5453,-0.5397,-0.5365,-0.5294,-0.5221,-0.5157,-0.51,-0.5089,-0.5038,-0.5045,-0.495,-0.5015,-0.4883,-0.4951,-0.4909,-0.4888,-0.4882,-0.4868,-0.4939,-0.4815,-0.4614,-0.459,-0.4861,-0.4863,-0.4865,0,-0.5547,-0.5425,-0.5318,-0.5287,-0.5221,-0.517,-0.5139,-0.5087,-0.504,-0.4976,-0.4945,-0.4871,-0.4829,-0.4771,-0.4756,-0.4805,-0.4623,-0.4687,-0.4608,-0.4608,-0.4565,-0.4567,-0.435,-0.4545,-0.4545,-0.4545,-0.4546,0,-0.5379,-0.5284,-0.5263,-0.5196,-0.509,-0.5085,-0.4979,-0.4953,-0.4906,-0.4833,-0.4848,-0.4779,-0.4766,-0.4694,-0.4682,-0.4573,-0.4555,-0.4541,-0.4538,-0.4537,-0.4538,-0.4505,-0.4513,-0.454,-0.4541,-0.4542,-0.4543,0,-0.5225,-0.5208,-0.5092,-0.5039,-0.5023,-0.4947,-0.49,-0.4836,-0.4817,-0.4724,-0.4702,-0.4671,-0.4586,-0.4567,-0.4467,-0.4459,-0.4328,-0.4338,-0.4347,-0.4346,-0.4267,-0.4273,-0.4018,-0.3983,-0.4204,-0.4202,-0.42,0,-0.5118,-0.5045,-0.4985,-0.4938,-0.4905,-0.4829,-0.4781,-0.4773,-0.4722,-0.4653,-0.4595,-0.4513,-0.4446,-0.431,-0.4278,-0.42,-0.4205,-0.4122,-0.4193,-0.4194,-0.4199,-0.4202,-0.4193,-0.4106,-0.4104,-0.4102,-0.41,0,-0.4927,-0.4922,-0.4853,-0.478,-0.4723,-0.4665,-0.461,-0.457,-0.4555,-0.4497,-0.4411,-0.4359,-0.4257,-0.4174,-0.4097,-0.4064,-0.4077,-0.4079,-0.4056,-0.4051,-0.4058,-0.4049,-0.4305,-0.4084,-0.4085,-0.4086,-0.4087,-0.4088,-0.479,-0.4726,-0.4672,-0.4595,-0.4553,-0.4501,-0.4437,-0.441,-0.4339,-0.4256,-0.4256,-0.4161,-0.4106,-0.4004,-0.3966,-0.3891,-0.3917,-0.3884,-0.3875,-0.3866,-0.3857,-0.4074,-0.3877,-0.3878,-0.3878,-0.3879,-0.3879,0,-0.4596,-0.4564,-0.4493,-0.4415,-0.4353,-0.4376,-0.4316,-0.4262,-0.4179,-0.4127,-0.4061,-0.3962,-0.3881,-0.3843,-0.3763,-0.371,-0.3714,-0.3689,-0.369,-0.3682,-0.384,-0.3866,-0.3686,-0.3686,-0.3686,-0.3686,-0.3687,-0.3687,-0.4488,-0.4379,-0.4368,-0.4238,-0.4206,-0.4114,-0.4078,-0.4029,-0.3987,-0.3876,-0.3809,-0.3786,-0.3738,-0.3655,-0.3581,-0.3572,-0.354,-0.351,-0.3504,-0.3652,-0.3671,-0.3689,-0.3714,-0.3505,-0.3504,-0.3351,-0.335,-0.3349]}]]